User: anonymous   Login
Location: La Tine
(46.4708°N, 7.0525°E)
Time: 23:06:29
(UTC+00:00)
Language:

CSL-04 Debris - Orbit

View from above orbital plane
View from above orbital plane
View from above satellite
View from above satellite

Ground track
Ground track

The orbit data is extracted from the following two-line orbital elements,

1 25733U 99025D   21127.53765498  .00000080  00000-0  62678-4 0  9996
2 25733  98.9125 162.8788 0016066 119.5874 240.6903 14.16457206135571
Epoch (UTC): 07 May 2021 12:54:13
Eccentricity: 0.0016066
inclination: 98.9125°
perigee height: 826 km
apogee height: 849 km
right ascension of ascending node: 162.8788°
argument of perigee: 119.5874°
revolutions per day: 14.16457206
mean anomaly at epoch: 240.6903°
orbit number at epoch: 13557

The dashed part of the orbit path shows where the satellite is in the earth's shadow,  

DLR